Weather History for New Delhi, India

Change the Weather History Date:

Tuesday, January 29, 2013

  Actual Average Record
Temperature  
Mean Temperature 58 °F -  
Max Temperature 71 °F 73 °F 73 °F (2014)
Min Temperature 46 °F 51 °F 51 °F (2014)
Degree Days  
Heating Degree Days 6    
Growing Degree Days 8 (Base 50)    
Moisture  
Dew Point 47 °F    
Average Humidity 74    
Maximum Humidity 100    
Minimum Humidity 35    
Precipitation  
Precipitation 0.00 in - - ()
Sea Level Pressure  
Sea Level Pressure 30.01 in    
Wind  
Wind Speed 2 mph ()    
Max Wind Speed 10 mph    
Max Gust Speed -    
Visibility 0.6 miles    
Events Fog    
Averages and records for this station are not official NWS values.
T = Trace of Precipitation, MM = Missing Value Source: Averaged Metar Reports

Daily Weather History Graph

Daily Weather History Graph

Search for Another Location

Airport:

Trip Planner

Search our weather history database for the weather conditions in past years. The results will help you decide how hot, cold, wet, or windy it might be!

Date:

Astronomy

Jan. 29, 2013 Rise Set
Actual Time 7:11 AM IST 5:58 PM IST
Civil Twilight 6:46 AM IST 6:23 PM IST
Nautical Twilight 6:17 AM IST 6:51 PM IST
Astronomical Twilight 5:49 AM IST 7:19 PM IST
Moon 8:09 PM IST (1/29) 8:08 AM IST (1/29)
Length of Visible Light 11h 36m
Length of Day
10h 47m
Waning Gibbous, 96% of the Moon is Illuminated
Jan 29
Waning Gibbous
Feb 3
Last Quarter
Feb 10
New
Feb 18
First Quarter
Feb 26
Full

Hourly Weather History & Observations

Time (IST) Temp. Windchill Dew Point Humidity Pressure Visibility Wind Dir Wind Speed Gust Speed Precip Events Conditions
12:00 AM 53.6 °F - 48.2 °F 82% 30.04 in 0.4 mi Calm Calm - N/A Fog Shallow Fog
12:30 AM 51.8 °F - 50.0 °F 94% 30.04 in 0.4 mi Calm Calm - N/A Fog Shallow Fog
1:00 AM 50.0 °F - 50.0 °F 100% 30.04 in 0.4 mi Calm Calm - N/A Fog Shallow Fog
1:30 AM 50.0 °F - 50.0 °F 100% 30.04 in 0.4 mi Calm Calm - N/A Fog Shallow Fog
2:00 AM 50.0 °F - 50.0 °F 100% 30.04 in 0.4 mi Calm Calm - N/A Fog Shallow Fog
2:30 AM 50.0 °F - 50.0 °F 100% 30.04 in 0.4 mi Calm Calm - N/A Fog Shallow Fog
3:00 AM 50.0 °F - 50.0 °F 100% 30.04 in 0.4 mi Calm Calm - N/A Fog Shallow Fog
3:30 AM 50.0 °F - 50.0 °F 100% 30.01 in 0.4 mi SW 4.6 mph - N/A Fog Shallow Fog
4:00 AM 48.2 °F - 48.2 °F 100% 30.01 in 0.4 mi West 3.5 mph - N/A Fog Shallow Fog
4:30 AM 48.2 °F - 48.2 °F 100% 30.01 in 0.2 mi Calm Calm - N/A Fog Fog
5:00 AM 48.2 °F - 48.2 °F 100% 30.01 in 0.2 mi Calm Calm - N/A Fog Fog
5:30 AM 46.4 °F - 46.4 °F 100% 30.01 in 0.2 mi Calm Calm - N/A Fog Fog
6:00 AM 46.4 °F - 46.4 °F 100% 30.01 in 0.3 mi Calm Calm - N/A Fog Fog
6:30 AM 46.4 °F - 46.4 °F 100% 30.01 in 0.3 mi Calm Calm - N/A Fog Fog
7:00 AM 46.4 °F 45.2 °F 46.4 °F 100% 30.01 in 0.2 mi WSW 3.5 mph - N/A Fog Fog
10:30 AM 59.0 °F - 46.4 °F 63% 30.04 in 1.1 mi West 4.6 mph - N/A   Partly Cloudy
12:00 PM 68.0 °F - 44.6 °F 43% 30.04 in 1.2 mi WNW 6.9 mph - N/A   Smoke
12:30 PM 69.8 °F - 42.8 °F 38% 30.04 in 1.2 mi WNW 8.1 mph - N/A   Haze
1:00 PM 69.8 °F - 42.8 °F 38% 30.01 in 1.4 mi WNW 8.1 mph - N/A   Haze
1:30 PM 69.8 °F - 42.8 °F 38% 30.01 in 1.4 mi NW 6.9 mph - N/A   Haze
2:00 PM 71.6 °F - 44.6 °F 38% 29.98 in 1.6 mi NW 10.4 mph - N/A   Haze
2:30 PM 71.6 °F - 44.6 °F 38% 29.98 in 1.7 mi NW 10.4 mph - N/A   Haze
3:30 PM 71.6 °F - 42.8 °F 35% 29.98 in - NW 10.4 mph - N/A   Haze
4:00 PM 69.8 °F - 41.0 °F 35% 29.98 in - NW 9.2 mph - N/A   Haze
4:30 PM 69.8 °F - 41.0 °F 35% 29.98 in - NNW 8.1 mph - N/A   Haze
5:00 PM 69.8 °F - 44.6 °F 40% 29.98 in - NNW 6.9 mph - N/A   Haze
5:30 PM 68.0 °F - 42.8 °F 40% 29.98 in - NW 5.8 mph - N/A   Haze
6:00 PM 68.0 °F - 44.6 °F 43% 29.98 in - NW 4.6 mph - N/A   Haze
7:00 PM 62.6 °F - 48.2 °F 59% 29.98 in 1.2 mi Calm Calm - N/A   Smoke
8:00 PM 60.8 °F - 48.2 °F 63% 30.01 in 0.6 mi Calm Calm - N/A   Mist
8:30 PM 59.0 °F - 50.0 °F 72% 30.01 in 0.6 mi Calm Calm - N/A   Mist
9:30 PM 55.4 °F - 51.8 °F 88% 30.01 in 0.4 mi Calm Calm - N/A Fog Shallow Fog
10:00 PM 55.4 °F - 51.8 °F 88% 30.01 in 0.4 mi Calm Calm - N/A Fog Shallow Fog
10:30 PM 53.6 °F - 51.8 °F 94% 30.01 in 0.4 mi Calm Calm - N/A Fog Shallow Fog
11:00 PM 53.6 °F - 51.8 °F 94% 30.01 in 0.4 mi Calm Calm - N/A Fog Shallow Fog
11:30 PM 53.6 °F - 51.8 °F 94% 30.04 in 0.4 mi Calm Calm - N/A Fog Shallow Fog